Station: Grafenwoehr, ICAO: ETIC, Synop: Synop: 10687,
Koordinaten: 4942'00''N 01157'00''E, Hoehe: 415m, Entfernung: 18.62km
2018/04/22 13:56
ETIC 221356Z AUTO 27005KT 9999 CLR 26/09 A2994 RMK AO2 SLP130 T02580092 $


Station: GRAFENWOHR (USA, ICAO: EDIC, Synop: ,
Koordinaten: 49 42 N 011 56 E, Hoehe: 415m, Entfernung: 19.81km


Station: Kuemmersruck, ICAO: ETGK, Synop: Synop: 10771,
Koordinaten: 4926'00''N 01154'00''E, Hoehe: 419m, Entfernung: 35.94km


Station: GAERMERSDORF, ICAO: EDZH, Synop: ,
Koordinaten: 49 25 N 011 54 E, Hoehe: 419m, Entfernung: 37.41km


Station: Bayreuth, ICAO: EDQD, Synop: Synop: 10677,
Koordinaten: 4959'00''N 01138'00''E, Hoehe: 488m, Entfernung: 52.71km
2007/07/01 15:50
EDQD 011550Z 01011KT CAVOK 23/15 Q1012


Station: Hohenfels, ICAO: ETIH, Synop: Synop: 10775,
Koordinaten: 4913'00''N 01150'00''E, Hoehe: 442m, Entfernung: 58.91km
2018/04/22 13:56
ETIH 221356Z AUTO 19005KT 9999 FEW070 26/10 A2997 RMK AO2 SLP139 T02620103 $


mehr Wetter
WetterInfo - adds.pl 2.6.003 DL3EL © 2004-2017 [374258]